Home > Weather > Sopron > Past weeks

Flag for Hungary Weather for the Past 2 Weeks in Sopron, Hungary

Now
45 °F

Cool.


Feels Like: 44 °F
Forecast: 39 / 53 °F
Wind: 3 mph from East

Location: Eisenstadt

Current Time: Feb 8, 2016 at 12:00:53 PM

Latest Report: Feb 8, 2016 at 11:00 AM


Visibility: N/A

Pressure: 29.91 "Hg

Humidity: 78%

Dew point: 38 °F

Location of SopronLocation

Historic Weather in Sopron — Graph

°F

Sopron Temperature Yesterday

Maximum temperature yesterday: 58 °F (at 2:00 PM)
Minimum temperature yesterday: 39 °F (at 6:00 AM)
Average temperature yesterday: 50 °F

High & Low Weather Summary for the Past Weeks

 TemperatureHumidityPressure
High60 °F (Feb 1, 1:00 PM)100% (Jan 30, 8:00 PM)30.55 "Hg (Jan 30, 8:00 PM)
Low30 °F (Jan 27, 8:00 AM)42% (Feb 7, 11:00 AM)29.78 "Hg (Feb 7, 3:00 PM)
Average42 °F81%30.18 "Hg
* Reported Jan 24 11:00 AM — Feb 8 11:00 AM, Sopron, Weather by CustomWeather, © 2016

Note: Actual official high and low records may vary slightly from our data, if they occured in-between our weather recording intervals... More about our weather records

Advertising

Sopron Weather History for the Previous 24 Hours

 ConditionsComfort  
Time TempWeatherWind HumidityBarometerVisibility
11:00 AM
Mon, Feb 8
45 °FCool.3 mph78%29.91 "HgN/A
10:00 AM45 °FOvercast.3 mph77%29.92 "Hg12 mi
9:00 AM46 °FCool.3 mph76%29.94 "HgN/A
8:00 AM46 °FCool.3 mph74%29.94 "HgN/A
7:00 AM44 °FOvercast.3 mph78%29.94 "Hg9 mi
6:00 AM45 °FOvercast.3 mph77%29.95 "Hg6 mi
5:00 AM47 °FOvercast.1 mph72%29.95 "Hg6 mi
2:00 AM47 °FCool.5 mph68%29.90 "HgN/A
1:00 AM46 °FOvercast.2 mph71%29.88 "Hg6 mi
11:00 PM
Sun, Feb 7
48 °FCool.1 mph69%29.83 "HgN/A
10:00 PM49 °FOvercast.2 mph68%29.82 "Hg6 mi
9:00 PM50 °FCool.3 mph64%29.82 "HgN/A
8:00 PM50 °FCool.5 mph65%29.82 "HgN/A
7:00 PM50 °FPassing clouds.7 mph64%29.81 "Hg6 mi
6:00 PM51 °FCool.6 mph63%29.80 "HgN/A
5:00 PM52 °FCool.2 mph56%29.79 "HgN/A
4:00 PM54 °FScattered clouds.6 mph52%29.78 "Hg12 mi
3:00 PM57 °FRefreshingly cool.5 mph49%29.78 "HgN/A
2:00 PM58 °FRefreshingly cool.8 mph45%29.78 "HgN/A
1:00 PM57 °FPartly sunny.9 mph43%29.80 "Hg9 mi
12:00 PM57 °FRefreshingly cool.8 mph42%29.80 "HgN/A
Weather by CustomWeather, © 2016

See weather overviewHow to use our weather pages